User: anonymous   Login
Location: Unspecified
(0.0000°N, 0.0000°E)
Time: 08:12:00
(UTC+02:00)
Language:

ATLAS 2AS CENTAUR R/B - Orbit

View from above orbital plane
View from above orbital plane
View from above satellite
View from above satellite

Ground track
Ground track

The orbit data is extracted from the following two-line orbital elements,

1 28096U 03054B   15180.85772738 0.00000000  00000-0  00000-0 0    02
2 28096  63.6680  73.4257 0259000 286.1665  73.8335 13.40785678    02
Epoch (UTC): 29 June 2015 20:35:07
Eccentricity: 0.0259000
inclination: 63.6680°
perigee height: 912 km
apogee height: 1300 km
right ascension of ascending node: 73.4257°
argument of perigee: 286.1665°
revolutions per day: 13.40785678
mean anomaly at epoch: 73.8335°
orbit number at epoch: 0

The dashed part of the orbit path shows where the satellite is in the earth's shadow,  

DLR